| time (UTC) | temp F | wind direction | speed MPH | gust MPH | rain 1hr in | rain 24hr in | rain mn in | humidity % | barometer mb |
| 20260831230516 | 92 | 248 | 1.0 | 2.0 | 0.00 | 0.00 | 0.00 | 63 | 1014.7 |
| 20260831225536 | 92 | 0.0 | 1.0 | 0.00 | 0.00 | 0.00 | 64 | 1014.7 | |
| 20260831224516 | 91 | 225 | 1.0 | 3.0 | 0.00 | 0.00 | 0.00 | 64 | 1014.7 |
| 20260831223517 | 90 | 248 | 2.0 | 4.0 | 0.00 | 0.00 | 0.00 | 64 | 1014.7 |
| 20260831222516 | 90 | 248 | 3.0 | 5.0 | 0.00 | 0.00 | 0.00 | 67 | 1014.7 |
| 20260831221516 | 90 | 270 | 2.0 | 4.0 | 0.00 | 0.00 | 0.00 | 64 | 1014.7 |
| 20260831220516 | 89 | 270 | 3.0 | 5.0 | 0.00 | 0.00 | 0.00 | 65 | 1014.7 |
| 20260831215516 | 90 | 248 | 3.0 | 7.0 | 0.00 | 0.00 | 0.00 | 64 | 1014.8 |
| 20260831214557 | 90 | 248 | 3.0 | 8.0 | 0.00 | 0.00 | 0.00 | 66 | 1014.8 |
| 20260831213536 | 89 | 225 | 2.0 | 4.0 | 0.00 | 0.00 | 0.00 | 66 | 1014.9 |
| 20260831212518 | 88 | 248 | 4.0 | 6.0 | 0.00 | 0.00 | 0.00 | 66 | 1014.9 |
| 20260831211516 | 88 | 248 | 3.0 | 7.0 | 0.00 | 0.00 | 0.00 | 67 | 1015.0 |
| 20260831210516 | 88 | 225 | 4.0 | 8.0 | 0.00 | 0.00 | 0.00 | 65 | 1014.9 |
| 20260831205516 | 89 | 248 | 4.0 | 8.0 | 0.00 | 0.00 | 0.00 | 64 | 1015.0 |
| 20260831204537 | 88 | 270 | 4.0 | 8.0 | 0.00 | 0.00 | 0.00 | 66 | 1015.1 |
| 20260831203516 | 88 | 270 | 5.0 | 9.0 | 0.00 | 0.00 | 0.00 | 67 | 1015.2 |
| 20260831202536 | 87 | 248 | 4.0 | 6.0 | 0.00 | 0.00 | 0.00 | 70 | 1015.2 |
| 20260831201516 | 87 | 270 | 3.0 | 8.0 | 0.00 | 0.00 | 0.00 | 72 | 1015.3 |
| 20260831200516 | 87 | 248 | 3.0 | 6.0 | 0.00 | 0.00 | 0.00 | 71 | 1015.2 |
| 20260831195537 | 86 | 270 | 3.0 | 6.0 | 0.00 | 0.00 | 0.00 | 73 | 1015.2 |
| 20260831194536 | 86 | 270 | 4.0 | 7.0 | 0.00 | 0.00 | 0.00 | 73 | 1015.3 |
| 20260831193516 | 87 | 270 | 4.0 | 7.0 | 0.00 | 0.00 | 0.00 | 72 | 1015.4 |
| 20260831192516 | 87 | 270 | 3.0 | 5.0 | 0.00 | 0.00 | 0.00 | 72 | 1015.3 |
| 20260831191516 | 87 | 248 | 3.0 | 6.0 | 0.00 | 0.00 | 0.00 | 69 | 1015.3 |
| 20260831190516 | 87 | 225 | 1.0 | 3.0 | 0.00 | 0.00 | 0.00 | 70 | 1015.2 |
| 20260831185516 | 87 | 248 | 2.0 | 4.0 | 0.00 | 0.00 | 0.00 | 67 | 1015.3 |
| 20260831184516 | 88 | 270 | 4.0 | 7.0 | 0.00 | 0.00 | 0.00 | 68 | 1015.4 |
| 20260831183516 | 87 | 270 | 3.0 | 7.0 | 0.00 | 0.00 | 0.00 | 67 | 1015.2 |
| 20260831182516 | 87 | 248 | 1.0 | 3.0 | 0.00 | 0.00 | 0.00 | 73 | 1015.3 |
| 20260831181516 | 87 | 270 | 3.0 | 5.0 | 0.00 | 0.00 | 0.00 | 68 | 1015.3 |
| 20260831180536 | 87 | 270 | 3.0 | 7.0 | 0.00 | 0.00 | 0.00 | 69 | 1015.3 |
| 20260831175516 | 86 | 225 | 2.0 | 3.0 | 0.00 | 0.00 | 0.00 | 69 | 1015.2 |
| 20260831174516 | 86 | 270 | 2.0 | 5.0 | 0.00 | 0.00 | 0.00 | 69 | 1015.2 |
| 20260831173516 | 86 | 225 | 2.0 | 5.0 | 0.00 | 0.00 | 0.00 | 71 | 1015.3 |
| 20260831172516 | 85 | 270 | 2.0 | 4.0 | 0.00 | 0.00 | 0.00 | 73 | 1015.4 |
| 20260831171516 | 85 | 270 | 3.0 | 5.0 | 0.00 | 0.00 | 0.00 | 72 | 1015.2 |
| 20260831170536 | 84 | 248 | 2.0 | 3.0 | 0.00 | 0.00 | 0.00 | 75 | 1015.2 |
| 20260831165516 | 84 | 270 | 1.0 | 3.0 | 0.00 | 0.00 | 0.00 | 76 | 1015.0 |
| 20260831164536 | 83 | 270 | 2.0 | 4.0 | 0.00 | 0.00 | 0.00 | 77 | 1015.0 |
| 20260831163516 | 83 | 248 | 1.0 | 3.0 | 0.00 | 0.00 | 0.00 | 78 | 1014.8 |
| 20260831162516 | 83 | 270 | 2.0 | 4.0 | 0.00 | 0.00 | 0.00 | 77 | 1014.9 |
| 20260831161516 | 84 | 248 | 1.0 | 3.0 | 0.00 | 0.00 | 0.00 | 74 | 1014.9 |
| 20260831160516 | 83 | 270 | 1.0 | 4.0 | 0.00 | 0.00 | 0.00 | 74 | 1014.6 |
| 20260831155516 | 83 | 338 | 1.0 | 3.0 | 0.00 | 0.00 | 0.00 | 74 | 1014.3 |
| 20260831154515 | 82 | 315 | 1.0 | 2.0 | 0.00 | 0.00 | 0.00 | 76 | 1014.2 |
| 20260831153516 | 82 | 315 | 1.0 | 4.0 | 0.00 | 0.00 | 0.00 | 78 | 1014.0 |
| 20260831152536 | 81 | 338 | 2.0 | 5.0 | 0.00 | 0.00 | 0.00 | 78 | 1014.3 |
| 20260831151516 | 81 | 338 | 1.0 | 4.0 | 0.00 | 0.00 | 0.00 | 79 | 1014.1 |
| 20260831150536 | 81 | 315 | 1.0 | 3.0 | 0.00 | 0.00 | 0.00 | 80 | 1014.4 |
| 20260831145515 | 80 | 0.0 | 2.0 | 0.00 | 0.00 | 0.00 | 81 | 1013.8 | |
| 20260831144516 | 80 | 0.0 | 2.0 | 0.00 | 0.00 | 0.00 | 83 | 1013.5 | |
| 20260831143516 | 79 | 0.0 | 1.0 | 0.00 | 0.00 | 0.00 | 83 | 1013.7 | |
| 20260831142516 | 79 | 270 | 2.0 | 5.0 | 0.00 | 0.00 | 0.00 | 83 | 1013.9 |
| 20260831141515 | 79 | 270 | 1.0 | 5.0 | 0.00 | 0.00 | 0.00 | 84 | 1014.3 |
| 20260831140516 | 78 | 315 | 1.0 | 2.0 | 0.00 | 0.00 | 0.00 | 85 | 1013.9 |
| 20260831135516 | 78 | 270 | 2.0 | 6.0 | 0.00 | 0.00 | 0.00 | 85 | 1013.7 |
| 20260831134517 | 78 | 270 | 5.0 | 10.0 | 0.00 | 0.00 | 0.00 | 85 | 1013.9 |
| 20260831133515 | 78 | 293 | 4.0 | 13.0 | 0.00 | 0.00 | 0.00 | 85 | 1013.9 |
| 20260831132516 | 78 | 293 | 3.0 | 11.0 | 0.00 | 0.00 | 0.00 | 85 | 1013.9 |
| 20260831131516 | 78 | 270 | 2.0 | 5.0 | 0.00 | 0.00 | 0.00 | 85 | 1013.8 |
| 20260831130515 | 78 | 270 | 2.0 | 4.0 | 0.00 | 0.00 | 0.00 | 85 | 1013.6 |
| 20260831125536 | 78 | 248 | 7.0 | 11.0 | 0.00 | 0.00 | 0.00 | 85 | 1014.0 |
| 20260831124516 | 78 | 248 | 7.0 | 13.0 | 0.00 | 0.00 | 0.00 | 85 | 1013.9 |
| 20260831123515 | 78 | 270 | 5.0 | 9.0 | 0.00 | 0.00 | 0.00 | 86 | 1013.6 |
| 20260831122515 | 78 | 270 | 6.0 | 10.0 | 0.00 | 0.00 | 0.00 | 86 | 1013.5 |
| 20260831121535 | 78 | 248 | 6.0 | 10.0 | 0.00 | 0.00 | 0.00 | 87 | 1013.5 |
| 20260831120515 | 77 | 248 | 4.0 | 7.0 | 0.00 | 0.00 | 0.00 | 88 | 1013.1 |
| 20260831115515 | 77 | 225 | 2.0 | 5.0 | 0.00 | 0.00 | 0.00 | 89 | 1013.1 |
| 20260831114515 | 76 | 248 | 2.0 | 4.0 | 0.00 | 0.00 | 0.00 | 89 | 1012.7 |
| 20260831113515 | 76 | 0.0 | 2.0 | 0.00 | 0.00 | 0.00 | 88 | 1012.7 | |
| 20260831112536 | 76 | 0.0 | 2.0 | 0.00 | 0.00 | 0.00 | 88 | 1012.4 | |
| 20260831111516 | 77 | 0.0 | 0.0 | 0.00 | 0.00 | 0.00 | 87 | 1012.4 | |
| 20260831110515 | 77 | 0.0 | 0.0 | 0.00 | 0.00 | 0.00 | 86 | 1012.4 | |
| 20260831105517 | 77 | 0.0 | 1.0 | 0.00 | 0.00 | 0.00 | 86 | 1012.3 | |
| 20260831104520 | 77 | 225 | 1.0 | 1.0 | 0.00 | 0.00 | 0.00 | 86 | 1012.1 |
| 20260831103519 | 78 | 225 | 1.0 | 2.0 | 0.00 | 0.00 | 0.00 | 86 | 1012.2 |
| 20260831102540 | 78 | 0.0 | 1.0 | 0.00 | 0.00 | 0.00 | 85 | 1012.2 | |
| 20260831101522 | 78 | 225 | 1.0 | 2.0 | 0.00 | 0.00 | 0.00 | 85 | 1012.1 |
| 20260831100518 | 78 | 180 | 1.0 | 3.0 | 0.00 | 0.00 | 0.00 | 86 | 1012.0 |
| 20260831095559 | 77 | 180 | 1.0 | 3.0 | 0.00 | 0.00 | 0.00 | 87 | 1011.8 |
| 20260831094519 | 77 | 158 | 1.0 | 3.0 | 0.00 | 0.00 | 0.00 | 86 | 1011.7 |
| 20260831093519 | 77 | 0.0 | 1.0 | 0.00 | 0.00 | 0.00 | 86 | 1011.6 | |
| 20260831092519 | 77 | 0.0 | 1.0 | 0.00 | 0.00 | 0.00 | 85 | 1011.5 | |
| 20260831091539 | 77 | 0.0 | 1.0 | 0.00 | 0.00 | 0.00 | 85 | 1011.3 | |
| 20260831090518 | 78 | 0.0 | 0.0 | 0.00 | 0.00 | 0.00 | 84 | 1011.4 | |
| 20260831085518 | 78 | 158 | 1.0 | 2.0 | 0.00 | 0.00 | 0.00 | 84 | 1011.2 |
| 20260831084518 | 78 | 203 | 1.0 | 3.0 | 0.00 | 0.00 | 0.00 | 83 | 1011.2 |
| 20260831083518 | 78 | 158 | 2.0 | 6.0 | 0.00 | 0.00 | 0.00 | 83 | 1010.9 |
| 20260831082559 | 78 | 158 | 4.0 | 7.0 | 0.00 | 0.00 | 0.00 | 83 | 1010.9 |
| 20260831081519 | 78 | 158 | 4.0 | 9.0 | 0.00 | 0.00 | 0.00 | 84 | 1011.0 |
| 20260831080519 | 78 | 158 | 3.0 | 6.0 | 0.00 | 0.00 | 0.00 | 84 | 1010.9 |
| 20260831075518 | 78 | 158 | 2.0 | 5.0 | 0.00 | 0.00 | 0.00 | 84 | 1010.9 |
| 20260831074521 | 78 | 158 | 2.0 | 4.0 | 0.00 | 0.00 | 0.00 | 84 | 1011.1 |
| 20260831073518 | 79 | 158 | 1.0 | 2.0 | 0.00 | 0.00 | 0.00 | 82 | 1011.3 |
| 20260831072518 | 79 | 158 | 2.0 | 4.0 | 0.00 | 0.00 | 0.00 | 82 | 1011.3 |
| 20260831071518 | 79 | 158 | 2.0 | 3.0 | 0.00 | 0.00 | 0.00 | 83 | 1011.4 |
| 20260831070518 | 79 | 0.0 | 1.0 | 0.00 | 0.00 | 0.00 | 82 | 1011.4 | |
| 20260831065518 | 80 | 248 | 1.0 | 2.0 | 0.00 | 0.00 | 0.00 | 81 | 1011.7 |
| 20260831064517 | 80 | 0.0 | 1.0 | 0.00 | 0.00 | 0.00 | 80 | 1011.4 | |
| 20260831063520 | 81 | 0.0 | 2.0 | 0.00 | 0.00 | 0.00 | 78 | 1011.5 | |
| 20260831062543 | 81 | 248 | 2.0 | 4.0 | 0.00 | 0.00 | 0.00 | 76 | 1011.1 |
| 20260831061518 | 82 | 203 | 2.0 | 6.0 | 0.00 | 0.00 | 0.00 | 75 | 1011.0 |
| 20260831060518 | 82 | 180 | 2.0 | 4.0 | 0.00 | 0.00 | 0.00 | 76 | 1010.7 |
| 20260831055517 | 82 | 158 | 3.0 | 6.0 | 0.00 | 0.00 | 0.00 | 76 | 1010.7 |
| 20260831054557 | 82 | 158 | 2.0 | 5.0 | 0.00 | 0.00 | 0.00 | 77 | 1010.6 |
| 20260831053516 | 82 | 135 | 2.0 | 4.0 | 0.00 | 0.00 | 0.00 | 80 | 1010.6 |
| 20260831052517 | 82 | 158 | 1.0 | 2.0 | 0.00 | 0.00 | 0.00 | 83 | 1010.6 |
| 20260831051537 | 82 | 135 | 1.0 | 3.0 | 0.00 | 0.00 | 0.00 | 83 | 1010.5 |
| 20260831050517 | 82 | 0.0 | 2.0 | 0.00 | 0.00 | 0.00 | 83 | 1010.6 | |
| 20260831045517 | 82 | 0.0 | 1.0 | 0.00 | 0.00 | 0.00 | 82 | 1010.7 | |
| 20260831044517 | 83 | 158 | 1.0 | 2.0 | 0.00 | 0.00 | 0.00 | 82 | 1010.6 |
| 20260831043538 | 83 | 158 | 1.0 | 2.0 | 0.00 | 0.00 | 0.00 | 82 | 1010.6 |
| 20260831042517 | 83 | 0.0 | 1.0 | 0.00 | 0.00 | 0.00 | 80 | 1010.6 | |
| 20260831041517 | 84 | 0.0 | 1.0 | 0.00 | 0.00 | 0.00 | 79 | 1010.6 | |
| 20260831040517 | 84 | 0.0 | 1.0 | 0.00 | 0.00 | 0.00 | 78 | 1010.7 | |
| 20260831035537 | 84 | 0.0 | 2.0 | 0.00 | 0.00 | 0.00 | 77 | 1010.9 | |
| 20260831034517 | 84 | 0.0 | 1.0 | 0.00 | 0.00 | 0.00 | 77 | 1010.9 | |
| 20260831033517 | 85 | 0.0 | 0.0 | 0.00 | 0.00 | 0.00 | 76 | 1010.9 | |
| 20260831032537 | 85 | 0.0 | 0.0 | 0.00 | 0.00 | 0.00 | 76 | 1010.8 | |
| 20260831031517 | 85 | 0.0 | 0.0 | 0.00 | 0.00 | 0.00 | 77 | 1010.9 | |
| 20260831030517 | 85 | 0.0 | 0.0 | 0.00 | 0.00 | 0.00 | 77 | 1010.9 | |
| 20260831025517 | 85 | 0.0 | 0.0 | 0.00 | 0.00 | 0.00 | 77 | 1010.9 | |
| 20260831024517 | 85 | 0.0 | 0.0 | 0.00 | 0.00 | 0.00 | 76 | 1010.9 | |
| 20260831023517 | 85 | 0.0 | 0.0 | 0.00 | 0.00 | 0.00 | 75 | 1010.8 | |
| 20260831022517 | 86 | 0.0 | 0.0 | 0.00 | 0.00 | 0.00 | 74 | 1010.7 | |
| 20260831021517 | 86 | 0.0 | 0.0 | 0.00 | 0.00 | 0.00 | 73 | 1010.8 | |
| 20260831020517 | 87 | 0.0 | 0.0 | 0.00 | 0.00 | 0.00 | 72 | 1010.8 | |
| 20260831015517 | 87 | 0.0 | 0.0 | 0.00 | 0.00 | 0.00 | 71 | 1010.8 | |
| 20260831014517 | 87 | 0.0 | 0.0 | 0.00 | 0.00 | 0.00 | 70 | 1010.5 | |
| 20260831013537 | 88 | 0.0 | 0.0 | 0.00 | 0.00 | 0.00 | 68 | 1010.4 | |
| 20260831012517 | 88 | 0.0 | 0.0 | 0.00 | 0.00 | 0.00 | 68 | 1010.4 | |
| 20260831011517 | 89 | 0.0 | 0.0 | 0.00 | 0.00 | 0.00 | 67 | 1010.4 | |
| 20260831010517 | 90 | 0.0 | 0.0 | 0.00 | 0.00 | 0.00 | 66 | 1010.2 | |
| 20260831005517 | 91 | 0.0 | 0.0 | 0.00 | 0.00 | 0.00 | 64 | 1010.4 | |
| 20260831004517 | 92 | 0.0 | 0.0 | 0.00 | 0.00 | 0.00 | 63 | 1010.5 | |
| 20260831003517 | 92 | 0.0 | 0.0 | 0.00 | 0.00 | 0.00 | 61 | 1010.4 | |
| 20260831002517 | 93 | 0.0 | 1.0 | 0.00 | 0.00 | 0.00 | 59 | 1010.5 | |
| 20260831001517 | 93 | 0.0 | 0.0 | 0.00 | 0.00 | 0.00 | 59 | 1010.5 | |
| 20260831000538 | 93 | 0.0 | 2.0 | 0.00 | 0.00 | 0.00 | 58 | 1010.4 | |
| 20260830235517 | 93 | 248 | 1.0 | 2.0 | 0.00 | 0.00 | 0.00 | 58 | 1010.4 |
| 20260830234537 | 93 | 248 | 1.0 | 3.0 | 0.00 | 0.00 | 0.00 | 58 | 1010.5 |
| 20260830233537 | 94 | 248 | 2.0 | 4.0 | 0.00 | 0.00 | 0.00 | 58 | 1010.5 |
| 20260830232517 | 94 | 203 | 1.0 | 2.0 | 0.00 | 0.00 | 0.00 | 58 | 1010.4 |
| 20260830231517 | 94 | 248 | 2.0 | 3.0 | 0.00 | 0.00 | 0.00 | 59 | 1010.4 |